This demonstration page uses our WeatherBlox Daily Observations layout. Learn more.

Hourly Observations for July 23, 2019

Temp ( °F °C ) Dew Point ( °F °C ) Humidity (%) Winds ( mph kmh ) Pressure ( in mb ) Visibility ( mi km ) Precip ( " mm )
12:15 am 00:15 Clear 61 16.2 60 15.5 96 96 Calm 30.27 1025 10 16.09344 0 0
12:35 am 00:35 Clear 61 16 59 15.2 95 95 Calm 30.27 1025 10 16.09344 0 0
12:55 am 00:55 Clear 60 15.4 59 15 97 97 Calm 30.3 1026 10 16.09344 0 0
1:15 am 01:15 Clear 60 15.7 59 14.9 95 95 Calm 30.27 1025 10 16.09344 0 0
1:35 am 01:35 Clear 60 15.6 59 15 96 96 Calm 30.27 1025 10 16.09344 0 0
1:55 am 01:55 Clear 60 15.6 58 14.6 94 94 Calm 30.27 1025 10 16.09344 0 0
2:15 am 02:15 Clear 59 15.1 58 14.2 94 94 Calm 30.3 1026 10 16.09344 0 0
2:35 am 02:35 Clear 59 14.9 58 14.2 96 96 Calm 30.3 1026 10 16.09344 0 0
2:55 am 02:55 Clear 58 14.3 57 14 98 98 Calm 30.3 1026 10 16.09344 0 0
3:15 am 03:15 Clear 58 14.5 58 14.5 100 100 Calm 30.3 1026 10 16.09344 0 0
3:35 am 03:35 Clear 56 13.4 56 13.3 99 99 Calm 30.3 1026 10 16.09344 0 0
3:55 am 03:55 Clear 56 13.5 56 13.2 98 98 Calm 30.3 1026 10 16.09344 0 0
4:15 am 04:15 Clear 56 13.3 56 13.3 100 100 Calm 30.3 1026 10 16.09344 0 0
4:35 am 04:35 Clear 55 13 55 12.8 99 99 Calm 30.3 1026 10 16.09344 0 0
4:55 am 04:55 Clear 55 12.8 55 12.6 99 99 Calm 30.3 1026 10 16.09344 0 0
5:15 am 05:15 Clear 54 12.4 54 12.4 100 100 Calm 30.3 1026 10 16.09344 0 0
5:35 am 05:35 Clear 55 12.7 55 12.5 99 99 Calm 30.3 1026 10 16.09344 0 0
5:55 am 05:55 Clear 55 12.6 54 12.4 99 99 Calm 30.3 1026 10 16.09344 0 0
6:15 am 06:15 Clear 56 13.5 56 13.4 99 99 Calm 30.3 1026 10 16.09344 0 0
6:35 am 06:35 Sunny 55 12.6 55 12.6 100 100 Calm 30.3 1026 10 16.09344 0 0
6:55 am 06:55 Sunny 54 12.1 54 12.1 100 100 Calm 30.36 1028 10 16.09344 0 0
7:15 am 07:15 Sunny 55 12.5 55 12.5 100 100 Calm 30.33 1027 10 16.09344 0 0
7:35 am 07:35 Sunny 57 14.1 57 14 99 99 Calm 30.33 1027 10 16.09344 0 0
7:55 am 07:55 Sunny 59 15.1 58 14.7 97 97 Calm 30.33 1027 10 16.09344 0 0
8:15 am 08:15 Sunny 62 16.4 59 15.2 93 93 Calm 30.3 1026 10 16.09344 0 0
8:35 am 08:35 Sunny 63 17.1 60 15.8 92 92 Calm 30.3 1026 10 16.09344 0 0
8:55 am 08:55 Sunny 64 17.8 62 16.4 92 92 Calm 30.3 1026 10 16.09344 0 0
9:15 am 09:15 Sunny 67 19.3 61 16.3 83 83 SW 3 6 30.27 1025 10 16.09344 0 0
9:35 am 09:35 Sunny 68 19.8 61 16.2 80 80 SSW 5 7 30.27 1025 10 16.09344 0 0
9:55 am 09:55 Sunny 69 20.3 60 15.7 75 75 SSW 5 7 30.27 1025 10 16.09344 0 0
10:15 am 10:15 Sunny 69 20.5 61 15.9 75 75 Calm 30.27 1025 10 16.09344 0 0
10:35 am 10:35 Sunny 70 21.3 60 15.4 69 69 S 5 7 30.27 1025 10 16.09344 0 0
10:55 am 10:55 Sunny 71 21.6 58 14.2 63 63 S 3 6 30.27 1025 10 16.09344 0 0
11:15 am 11:15 Partly Cloudy 71 21.8 55 12.7 56 56 Calm 30.27 1025 10 16.09344 0 0
11:35 am 11:35 Sunny 73 22.5 56 13.3 56 56 SSE 5 7 30.21 1023 10 16.09344 0 0
11:55 am 11:55 Sunny 73 22.7 57 13.7 57 57 SSE 9 15 30.21 1023 10 16.09344 0 0
12:15 pm 12:15 Sunny 72 22.3 56 13.1 56 56 Calm 30.24 1024 10 16.09344 0 0
12:35 pm 12:35 Sunny 73 22.7 56 13.5 56 56 SSE 3 6 30.21 1023 10 16.09344 0 0
12:55 pm 12:55 Sunny 74 23.3 58 14.3 57 57 SSE 5 7 30.21 1023 10 16.09344 0 0
1:15 pm 13:15 Sunny 73 22.9 57 13.8 57 57 SSE 5 7 30.18 1022 10 16.09344 0 0
1:35 pm 13:35 Sunny 74 23.5 56 13.2 53 53 Calm 30.18 1022 10 16.09344 0 0
1:55 pm 13:55 Sunny 74 23.5 57 14.1 56 56 ESE 6 9 30.18 1022 10 16.09344 0 0
2:15 pm 14:15 Sunny 74 23.4 57 13.8 55 55 Calm 30.18 1022 10 16.09344 0 0
2:35 pm 14:35 Sunny 75 24 59 14.9 57 57 Calm 30.18 1022 10 16.09344 0 0
2:55 pm 14:55 Sunny 76 24.4 57 13.9 52 52 SSE 3 6 30.18 1022 10 16.09344 0 0
3:15 pm 15:15 Sunny 76 24.6 58 14.6 54 54 SSE 7 11 30.15 1021 10 16.09344 0 0
3:35 pm 15:35 Sunny 76 24.2 57 14.1 53 53 ESE 3 6 30.15 1021 10 16.09344 0 0
3:55 pm 15:55 Sunny 76 24.5 56 13.6 51 51 SSE 5 7 30.15 1021 10 16.09344 0 0
4:15 pm 16:15 Sunny 76 24.4 58 14.2 53 53 Calm 30.15 1021 10 16.09344 0 0
4:35 pm 16:35 Sunny 77 25 58 14.5 52 52 SE 5 7 30.15 1021 10 16.09344 0 0
4:55 pm 16:55 Sunny 77 25.1 57 14.1 51 51 S 5 7 30.12 1020 10 16.09344 0 0
5:15 pm 17:15 Sunny 77 24.9 58 14.3 52 52 Calm 30.12 1020 10 16.09344 0 0
5:35 pm 17:35 Sunny 76 24.7 59 15.2 56 56 E 5 7 30.12 1020 10 16.09344 0 0
5:55 pm 17:55 Sunny 77 25 61 16 57 57 ESE 7 11 30.12 1020 10 16.09344 0 0
6:15 pm 18:15 Sunny 77 25.1 60 15.4 55 55 SE 6 9 30.12 1020 10 16.09344 0 0
6:35 pm 18:35 Sunny 76 24.6 60 15.7 58 58 ESE 7 11 30.12 1020 10 16.09344 0 0
6:55 pm 18:55 Sunny 76 24.5 60 15.3 57 57 E 8 13 30.12 1020 10 16.09344 0 0
7:15 pm 19:15 Sunny 76 24.3 60 15.5 58 58 ESE 8 13 30.12 1020 10 16.09344 0 0
7:35 pm 19:35 Sunny 75 23.9 60 15.7 60 60 ESE 8 13 30.09 1019 10 16.09344 0 0
7:55 pm 19:55 Sunny 74 23.1 61 16.2 65 65 ESE 8 13 30.09 1019 10 16.09344 0 0
8:15 pm 20:15 Partly Cloudy 72 22.4 62 16.5 69 69 ESE 7 11 30.09 1019 10 16.09344 0 0
8:35 pm 20:35 Partly Cloudy 71 21.4 62 16.8 75 75 ESE 6 9 30.09 1019 10 16.09344 0 0
8:55 pm 20:55 Sunny 69 20.5 62 16.7 79 79 ESE 6 9 30.12 1020 10 16.09344 0 0
9:15 pm 21:15 Partly Cloudy 67 19.6 63 17.1 86 86 ESE 5 7 30.15 1021 10 16.09344 0 0
9:35 pm 21:35 Clear 67 19.4 61 16.3 82 82 ESE 7 11 30.15 1021 10 16.09344 0 0
9:55 pm 21:55 Clear 65 18.6 61 16.3 87 87 ESE 8 13 30.15 1021 10 16.09344 0 0
10:15 pm 22:15 Clear 65 18.3 62 16.5 89 89 ESE 8 13 30.15 1021 10 16.09344 0 0
10:35 pm 22:35 Clear 65 18.1 61 16.3 89 89 ESE 8 13 30.15 1021 10 16.09344 0 0
10:55 pm 22:55 Clear 64 18 61 16.1 89 89 ESE 8 13 30.18 1022 10 16.09344 0 0
11:15 pm 23:15 Clear 64 17.8 60 15.6 87 87 SE 8 13 30.18 1022 10 16.09344 0 0
11:35 pm 23:35 Clear 64 17.5 60 15.5 88 88 ESE 8 13 30.18 1022 10 16.09344 0 0
11:55 pm 23:55 Clear 63 17.1 60 15.3 89 89 SE 8 13 30.18 1022 10 16.09344 0 0

Powered by AerisWeather